Location: Laas
(43.4693°N, 0.3073°E)
Time: 15:17:19
(UTC+00:00)

Cosmos 1697 Rocket - Pass Details

Date: 25 October 2020
Orbit: 831 x 845 km, 71.0° (Epoch: 24 November)

Event Time Altitude Azimuth Distance (km) Brightness Sun altitude
Rises 18:09:55 0° 168° (SSE) 3,360 5.8 -13.4°
Reaches altitude 10° 18:12:42 10° 156° (SSE) 2,433 4.9 -13.9°
Maximum altitude 18:17:11 26° 102° (ESE) 1,604 3.6 -14.7°
Enters shadow 18:18:54 22° 75° (ENE) 1,754 3.8 -15.0°
